STARLINK-3306, 50163

Orbit data source: Space-Track

STARLINK-3306, 50163 is a payload satellite owned by SpaceX/Seattle (US) in LEO that was launched on Sat, 18 Dec 2021 UTC via an FALCON 9 launch vehicle from the Air Force Western Test Range (AFWTR). Payload-class satellites include a variety of spacecraft equipped with specific instruments for various scientific and technological missions. These include communications satellites like Starlink; space stations such as the ISS; scientific satellites like the Hubble; Earth observation satellites from companies like Planet Labs, Umbra, and HawkEye 360; GPS; miniature CubeSats for education and research; and military/defense satellites.

Loading next visibility...
Identifier
50163, 2021-125H
Orbit
LEO
Country
Flag of USUS
Related business
Manufacturer
SpaceX/Seattle
Mission
Partially operational Commercial Communications
Bus & Motor
STARLINK, Unknown motor
Mass
290 kg wet, ~270 kg dry
Launch date (UTC)
2021-12-18 (5 years ago)
Launch vehicle
FALCON 9
Launch site
Air Force Western Test Range (AFWTR)
Object type
Payload
Rocket body
Debris
Shape & HBR
Box + 1 Pan, 10.1 m
Radar Cross Section
13.562 m², Large (>1 m²)

Expand to show TLE details & history
Last TLE update: 5 hours ago

TLE from 5 hours ago
0 STARLINK-3306
1 50163U 21125H   26170.00002315  .01384095  00000-0  27114-1 0  9999
2 50163  53.2180 140.7140 0000876  98.7354 119.2345 15.44096777  5730
Epoch: 2026-06-19T00:00Z
TLE epoch observation values (Epoch: 2026-06-19T00:00:02.000Z)
Latitude
-29.73578°
Longitude
78.60045°
Altitude
443.372 km
Speed
7.646 km/s
True Right ascension
23h 03m 22s
True Declination
-29° 34' 52"
Sunlit
Object was in full shadow at epoch
Visualization orbit readout
Latitude
Unknown
Longitude
Unknown
Altitude
Unknown
Speed
Unknown
Apparent Right ascension
Unknown
Apparent Declination
Unknown
Sunlit
N/A
Visualization observer readout
Local Sidereal Time
15:35:58
Azimuth
Unknown
Elevation
Unknown
Doppler factor
Unknown
Orbital elements
Apogee altitude
434.879 km
Perigee altitude
433.685 km
Semi-major axis
6,812.419 km
Eccentricity
0.00009
Inclination
53.218°
RAAN
140.714°
Arg. of periapsis
98.7354°
True anomaly
119.24326°
Mean anomaly
119.2345°
Eccentric anomaly
119.23888°
Mean motion
3.86003 °/min
Orbital period
93.26 mins
BSTAR
0.027114
Loading maneuver chart data...
Computing Atmospheric mass density...

Documentation

Showing up to 5 results
|